Flag for Congo Dem.Rep. Weather past 2 weeks in Kinshasa, Congo Dem.Rep.

Now
72 °F

Mild.


Feels Like: 69 °F
Forecast: 72 / 79 °F
Wind: 2 mph from Southwest

Location: Brazzaville / Maya-Maya

Current Time: Oct 25, 2014 at 7:26:40 AM

Latest Report: Oct 25, 2014 at 6:00 AM


Visibility: 5 mi

Pressure: 29.92 "Hg

Humidity: 88%

Dew point: 68 °F

Location of KinshasaLocation

Historic Weather in Kinshasa — Graph

°F

Kinshasa temperature yesterday

Maximum temperature yesterday: 82 °F (at 12:00 AM)
Minimum temperature yesterday: 72 °F (at 11:59 AM)
Average temperature yesterday: 76 °F

Past Weeks' High & Low Weather Summary

 TemperatureHumidityPressure
High90 °F (Oct 11, 3:00 PM)100% (Oct 11, 5:28 AM)30.04 "Hg (Oct 11, 5:28 AM)
Low70 °F (Oct 11, 5:28 AM)46% (Oct 11, 5:00 PM)29.80 "Hg (Oct 11, 4:00 PM)
Average79 °F76%29.92 "Hg
* Reported Oct 10 6:00 AM — Oct 25 6:00 AM, Kinshasa, Weather by CustomWeather, © 2014

Note: Actual official high and low records may vary slightly from our data, if they occured in-between our weather recording intervals... More about our weather records

Advertising

Kinshasa weather history for previous 24 hours

 ConditionsComfort  
Time TempWeatherWind HumidityBarometerVisibility
6:00 AM
Oct 25
72 °FMild.2 mph88%29.92 "Hg5 mi
5:00 AM70 °FPassing clouds.No wind94%29.92 "Hg5 mi
4:00 AM72 °FPassing clouds.No wind88%29.92 "Hg6 mi
3:00 AM72 °FPassing clouds.2 mph83%29.92 "Hg6 mi
2:00 AM72 °FPassing clouds.No wind94%29.92 "Hg6 mi
1:00 AM72 °FPassing clouds.2 mph94%29.95 "Hg6 mi
12:00 AM73 °FPassing clouds.2 mph89%29.95 "Hg6 mi
11:00 PM
Oct 24
73 °FPassing clouds.No wind89%29.98 "Hg6 mi
10:00 PM73 °FPassing clouds.5 mph89%29.95 "Hg6 mi
9:00 PM75 °FPassing clouds.5 mph83%29.92 "Hg6 mi
8:00 PM75 °FClear.7 mph83%29.89 "Hg6 mi
7:00 PM77 °FClear.5 mph83%29.86 "Hg6 mi
6:00 PM77 °FPassing clouds.3 mph79%29.83 "HgN/A
5:00 PM81 °FPassing clouds.2 mph70%29.83 "HgN/A
4:00 PM79 °FPassing clouds.2 mph79%29.86 "HgN/A
3:00 PM79 °FPassing clouds.2 mph79%29.86 "HgN/A
2:00 PM77 °FPassing clouds.2 mph79%29.89 "HgN/A
1:00 PM73 °FThunderstorms. Passing clouds.2 mph89%29.95 "HgN/A
12:00 PM72 °FLight rain. Scattered clouds.5 mph88%29.98 "Hg3 mi
11:59 AM72 °FLight rain. Scattered clouds.5 mph88%29.98 "Hg3 mi
11:00 AM81 °FPartly sunny.16 mph79%30.01 "Hg5 mi
10:00 AM77 °FFog.2 mph89%30.01 "Hg2 mi
9:55 AM77 °FFog.2 mph89%30.01 "Hg2 mi
9:00 AM77 °FFog.2 mph89%30.01 "Hg2 mi
8:01 AM75 °FFog.No wind94%29.98 "Hg2 mi
7:00 AM75 °FMostly cloudy.No wind89%29.95 "Hg5 mi
Weather by CustomWeather, © 2014

See weather overviewHow to use our weather pages